CAPE
6 0 0 0 0 0 0 0 16 115 156 160 152 176 616 860 974 1183 1591 1930 2182 2329 2374 2362 2409 2462 2491 2524 2552 2560 2498 2422 2319 2413 2612 2783 2731 2338 2255 2395 2318 2233
6 2 43 2 0 0 0 0 0 10 97 158 160 130 112 172 104 597 1174 1732 2030 2211 2280 2323 2370 2404 2424 2418 2395 2380 2283 2248 2245 2498 2642 2707 2619 2541 2517 2525 2385 2371
14 0 0 0 0 0 0 0 0 0 14 131 189 154 120 171 74 293 906 1529 1884 2075 2170 2234 2252 2274 2345 2383 2338 2254 2097 2091 2191 2413 2617 2675 2552 2612 2664 2635 2546 2475
23 0 0 0 1 1 0 0 0 0 1 64 191 254 223 218 114 195 732 1909 1773 1955 2045 2117 2184 2223 2305 2379 2347 2251 2224 2139 2146 2292 2550 2556 2520 2518 2572 2609 2592 2564
107 6 0 0 0 15 1 0 0 5 45 81 175 250 367 265 193 145 541 1204 1721 1869 1980 2051 2158 2225 2270 2346 2360 2306 2332 2407 2373 2338 2402 2402 2403 2418 2533 2580 2602 2576
236 117 7 0 0 0 9 0 0 0 34 144 264 392 315 254 251 200 367 917 1517 1814 1964 2033 2129 2232 2261 2308 2380 2384 2252 2377 2436 2384 2335 2276 2245 2304 2473 2529 2495 2445
201 174 87 2 0 0 2 28 7 3 0 40 287 444 388 325 344 338 290 582 1238 1705 1894 1999 2071 2208 2276 2316 2363 2384 2238 2304 2441 2510 2437 2359 2347 2380 2445 2467 2415 2410
136 129 122 62 2 0 0 1 42 58 4 0 18 322 657 407 396 465 469 426 851 1466 1785 1888 1956 2088 2234 2274 2312 2322 2316 2295 2321 2404 2540 2559 2551 2542 2584 2626 2626 2597
192 163 140 93 44 9 0 0 1 51 117 49 0 2 322 701 685 662 691 701 722 1012 1504 1765 1874 1956 2113 2243 2254 2264 2282 2292 2341 2368 2369 2426 2479 2487 2462 2544 2691 2722
357 300 258 199 110 51 22 2 0 1 92 137 95 8 4 287 659 682 676 745 866 983 1201 1512 1732 1889 1995 2166 2274 2268 2266 2277 2321 2393 2437 2393 2354 2346 2308 2336 2497 2647
478 519 518 495 272 154 80 42 21 6 36 148 202 160 66 61 335 543 632 646 756 988 1223 1379 1554 1737 1904 2044 2203 2296 2317 2330 2350 2400 2469 2514 2484 2384 2491 2236 2324 2495
596 611 679 711 639 527 213 124 79 50 26 112 295 344 283 175 188 438 673 649 354 573 928 1302 1476 1591 1753 1920 2084 2238 2325 2367 2402 2442 2486 2541 2567 2538 2497 2434 2343 2368
753 761 799 842 870 831 684 505 181 115 72 55 194 408 484 464 363 387 669 775 730 566 420 800 1198 1461 1629 1784 1948 2137 2297 2381 2435 2478 2519 2554 2575 2616 2595 2598 2609 2506
963 859 898 943 994 1029 958 799 628 417 150 99 106 217 426 550 627 531 606 800 867 820 736 690 905 1223 1485 1669 1820 1998 2205 2354 2422 2462 2493 2512 2541 2566 2589 2598 2619 2622
1043 1018 980 1018 1072 1152 1188 1089 938 779 602 195 195 199 312 441 573 660 667 733 912 983 941 867 872 1086 1334 1555 1733 1873 2035 2215 2342 2423 2443 2462 2478 2482 2472 2485 2504 2544
1115 1135 1044 1102 1137 1230 1325 1331 1240 1111 961 776 558 248 270 403 513 682 729 738 822 1002 1088 1062 1011 1040 1316 1447 1623 1758 1884 2008 2163 2288 2374 2406 2412 2410 2416 2396 2369 2315
1275 1281 1174 1198 1245 1318 1408 1453 1439 1394 1289 1134 915 691 377 428 601 685 798 836 827 892 1089 1188 1202 1184 1179 1325 1499 1677 1754 1844 1945 2080 2208 2306 2336 2350 2328 2301 2257 2201
1525 1506 1461 1334 1372 1438 1515 1560 1605 1598 1544 1434 1261 1060 810 602 697 772 836 902 917 910 964 1130 1258 1296 1315 1308 1352 1507 1668 1741 1797 1869 1981 2103 2200 2237 2237 2202 2164 2122
1769 1732 1691 1633 1521 1579 1635 1681 1754 1784 1762 1691 1609 1442 1203 930 870 915 964 992 1020 1005 987 1012 1169 1299 1368 1390 1394 1374 1484 1625 1661 1716 1785 1880 1990 2068 2104 2110 2091 2066
1991 1951 1908 1864 1804 1762 1787 1840 1900 1938 1960 1935 1862 1731 1587 1332 1088 1059 1088 1094 1094 1094 1076 1052 1070 1192 1322 1390 1425 1439 1438 1483 1545 1608 1653 1713 1799 1899 1973 2022 2050 2033
2191 2145 2108 2083 2057 2027 2018 2023 2025 2130 2205 2194 2127 2028 1905 1660 1447 1108 1226 1223 1191 1170 1144 1133 1116 1126 1238 1342 1412 1463 1483 1501 1514 1548 1591 1629 1670 1741 1842 1919 1967 1994
2331 2278 2272 2262 2256 2247 2229 2223 2181 2358 2510 2526 2398 2276 2157 1971 1738 1383 1276 1328 1307 1277 1240 1213 1197 1192 1198 1261 1376 1448 1499 1537 1542 1546 1569 1602 1644 1675 1716 1787 1850 1894
2280 2328 2389 2404 2411 2400 2388 2366 2399 2549 2688 2763 2736 2562 2371 2167 1873 1560 1264 1376 1390 1364 1353 1318 1300 1282 1271 1272 1284 1401 1473 1522 1577 1595 1600 1619 1630 1644 1670 1695 1723 1761
2352 2272 2396 2606 2551 2537 2522 2531 2602 2721 2831 2902 2912 2861 2649 2340 2053 1733 1418 1397 1410 1400 1386 1380 1364 1338 1321 1311 1295 1293 1380 1453 1511 1556 1585 1602 1611 1617 1632 1657 1712 2257
2233 2379 2410 2636 2734 2686 2720 2792 2858 2914 2984 3011 3006 2968 2930 2781 2420 1923 1539 1381 1446 1439 1413 1405 1390 1370 1347 1322 1314 1305 1297 1323 1379 1402 1437 1477 1530 1570 1604 1633 1653 1836
2098 2367 2765 2996 3214 3109 3091 3064 3066 3098 3097 3118 3112 3079 3034 2980 2839 2595 2038 1550 1507 1501 1486 1467 1450 1423 1392 1374 1340 1327 1328 1322 1289 1314 1306 1343 1410 1476 1528 1566 1611 1641
Wind_Speed
nan nan nan nan nan nan nan nan nan 5 5 4 3 4 4 5 4 4 4 4 4 4 5 6 6 6 5 5 5 5 6 7 6 5 6 6 6 5 6 6 7 9
nan nan nan nan nan nan nan nan nan nan nan 2 3 4 4 3 4 4 5 6 6 6 6 6 7 7 7 7 6 6 8 8 8 6 7 6 7 6 7 7 7 9
nan nan nan nan nan nan nan nan nan nan nan 2 2 3 4 4 nan 5 6 7 7 8 8 8 8 9 9 10 9 8 9 9 10 8 8 9 7 7 8 8 7 7
nan nan nan nan nan nan nan nan nan nan nan nan 2 4 4 5 4 5 7 8 9 10 10 10 12 12 12 11 10 10 10 10 11 9 10 10 9 8 9 8 8 8
4 nan nan nan nan nan nan nan nan nan nan nan 2 3 3 5 4 6 8 10 10 11 11 12 13 13 12 11 10 10 9 10 10 9 10 11 10 8 8 7 8 9
7 6 nan nan nan nan nan nan nan nan nan 4 1 2 3 4 5 6 8 10 11 12 13 13 13 13 11 11 9 10 9 9 9 8 9 10 11 9 8 6 6 8
7 7 nan nan nan nan nan nan nan nan nan nan 6 4 3 4 5 6 8 10 11 12 12 12 11 11 10 10 9 9 9 8 6 7 8 9 9 10 8 7 6 6
8 9 7 nan nan nan nan nan nan nan nan nan nan 5 5 4 5 6 8 9 11 12 12 12 11 10 9 8 9 9 9 6 6 6 7 8 7 8 8 8 7 6
11 10 9 nan nan nan nan nan nan nan 9 nan nan nan 7 5 6 7 8 9 11 11 12 11 10 9 8 8 8 9 9 8 6 6 7 7 7 8 7 6 6 7
12 11 9 8 7 nan nan nan nan nan nan 7 nan nan nan 7 7 7 9 10 11 12 12 11 10 9 8 8 8 8 8 8 6 5 5 6 7 7 6 4 6 6
10 11 10 8 7 9 nan nan nan nan nan 7 6 5 nan nan 7 9 9 10 10 11 11 11 9 8 7 7 7 7 7 7 6 5 5 5 5 5 4 4 4 5
10 10 9 9 9 9 9 9 nan nan nan 8 7 5 5 5 6 8 9 9 11 12 12 11 10 8 7 6 6 5 5 5 5 4 4 3 3 3 3 2 3 4
9 9 11 12 12 12 13 12 10 10 nan nan 8 7 5 5 5 7 9 10 11 12 12 12 11 10 8 7 6 5 4 4 4 3 3 2 2 2 2 2 2 2
10 12 13 13 15 16 14 13 12 11 11 nan 11 8 6 5 5 6 8 10 10 11 12 13 13 12 10 9 7 5 4 3 2 2 2 1 2 2 2 2 1 2
13 14 15 15 15 16 15 13 13 13 13 13 12 10 10 8 8 8 8 9 10 11 11 12 13 12 12 10 8 6 5 3 1 0 0 0 2 2 3 3 3 2
12 14 14 14 14 14 14 14 14 14 14 13 12 11 11 11 11 10 9 8 9 10 11 12 12 13 11 6 7 9 7 6 5 3 3 3 2 3 4 4 3 3
10 12 13 13 14 15 16 16 15 17 16 15 14 13 12 12 12 11 10 10 9 10 10 10 11 12 7 8 7 6 9 9 8 6 7 6 5 4 3 4 5 5
8 10 11 13 15 15 16 17 18 18 17 17 16 15 15 15 13 12 12 12 12 11 10 10 11 9 7 8 8 7 9 11 11 10 10 9 8 7 6 7 6 7
9 8 9 11 12 15 17 18 18 18 17 18 17 18 19 17 14 14 14 14 14 13 12 12 12 9 8 8 8 9 8 10 14 13 12 11 11 10 9 8 8 9
10 9 8 9 11 13 15 16 17 16 17 18 20 21 19 17 17 16 16 16 15 15 15 15 14 12 11 10 10 10 9 11 14 14 14 13 13 13 12 10 9 10
14 12 11 11 11 12 13 13 14 16 17 19 20 19 19 19 19 18 18 18 18 18 18 16 16 13 14 13 13 12 11 13 14 15 16 15 14 14 13 12 11 11
20 17 16 15 14 13 12 11 12 14 15 18 19 20 20 20 20 20 19 20 20 19 19 17 17 15 15 15 15 15 17 18 16 16 16 16 16 15 15 15 14 13
30 23 19 18 17 15 13 12 13 13 15 17 17 17 18 18 19 20 21 20 20 20 18 18 19 18 17 16 17 18 23 21 19 18 17 16 16 17 17 17 16 16
29 30 25 20 19 16 14 14 14 15 15 16 14 14 14 16 18 19 20 20 19 18 18 18 19 20 20 19 19 22 25 22 21 20 18 17 17 18 20 20 18 14
29 24 22 21 18 17 17 16 15 15 16 16 15 15 14 16 17 18 18 19 19 18 16 15 18 19 21 21 21 24 25 24 24 22 19 18 19 19 21 22 22 20
29 20 14 15 16 17 19 18 19 19 18 18 17 16 16 16 16 16 15 16 18 17 17 16 16 19 23 21 22 24 25 25 26 24 20 19 21 21 23 24 24 25
Wind_Direction
nan nan nan nan nan nan nan nan nan 158 152 158 134 109 87 93 121 104 107 122 119 119 118 117 127 127 119 121 115 113 107 94 99 109 111 115 126 141 140 148 158 151
nan nan nan nan nan nan nan nan nan nan nan 144 107 101 109 118 95 93 96 102 117 117 126 125 124 124 121 117 114 99 96 94 91 111 106 114 120 132 127 137 153 164
nan nan nan nan nan nan nan nan nan nan nan 85 89 103 99 102 nan 88 95 102 112 120 125 127 126 124 120 115 108 93 81 82 85 96 105 108 121 120 125 135 149 156
nan nan nan nan nan nan nan nan nan nan nan nan 108 80 92 104 95 90 102 106 115 121 127 130 121 120 118 112 104 91 81 76 77 83 93 111 118 119 120 132 137 152
189 nan nan nan nan nan nan nan nan nan nan nan 133 133 127 131 125 111 111 113 120 124 129 123 122 117 115 110 102 91 86 76 79 77 82 94 105 112 117 130 131 135
203 200 nan nan nan nan nan nan nan nan nan 220 178 188 139 127 132 125 119 117 124 126 128 129 123 118 113 109 102 93 86 76 76 71 75 81 93 102 113 122 130 132
220 216 nan nan nan nan nan nan nan nan nan nan 223 208 180 145 138 128 125 122 127 132 131 131 127 120 119 114 104 97 93 89 85 73 71 81 87 93 100 105 115 127
223 223 218 nan nan nan nan nan nan nan nan nan nan 209 205 162 142 142 142 136 138 137 138 136 134 127 125 120 106 102 99 97 84 77 81 85 88 89 90 91 99 111
223 225 226 nan nan nan nan nan nan nan 217 nan nan nan 206 184 162 157 156 153 148 147 147 145 140 135 134 126 114 105 98 99 89 80 78 81 80 82 83 92 98 98
218 221 229 223 214 nan nan nan nan nan nan 221 nan nan nan 191 181 173 174 168 159 158 159 155 151 146 141 130 116 111 105 99 99 92 84 81 80 81 81 80 85 97
217 221 223 223 216 217 nan nan nan nan nan 232 234 221 nan nan 186 189 186 182 170 167 167 164 157 153 144 132 126 123 109 104 103 101 95 86 82 86 85 80 87 84
218 218 217 219 218 217 217 218 nan nan nan 233 240 237 227 207 188 189 190 186 181 178 177 173 170 167 155 139 127 128 127 123 119 113 104 104 102 103 105 100 87 86
216 212 213 214 216 217 218 219 221 222 nan nan 234 235 238 224 202 189 191 194 189 188 185 185 182 178 173 165 155 151 139 128 120 113 111 124 135 123 138 139 122 115
209 210 212 213 216 220 220 220 222 223 224 nan 229 231 230 231 223 206 197 200 195 194 191 195 194 192 189 184 181 180 176 159 137 116 107 142 163 196 218 205 156 148
212 211 212 216 219 223 225 225 225 225 228 230 231 227 223 223 225 223 215 206 201 201 200 201 200 200 204 205 206 208 210 197 205 279 308 193 183 188 219 234 229 210
216 217 218 220 222 224 226 228 227 228 232 233 232 230 227 227 227 229 228 221 214 210 208 206 202 205 211 233 235 228 230 224 231 248 267 262 248 218 212 229 233 238
215 218 221 220 221 222 223 225 227 227 229 231 231 231 232 232 232 232 233 232 230 224 217 210 207 209 223 240 249 262 242 237 244 251 259 267 264 259 238 230 227 233
208 213 217 219 221 222 225 225 226 227 227 228 229 229 230 232 233 232 232 234 234 233 228 219 213 217 239 243 251 258 253 243 244 248 256 263 267 269 257 246 239 236
204 205 210 215 218 222 224 226 228 228 227 227 227 228 228 230 230 231 231 233 236 237 233 229 222 233 247 255 256 260 264 253 241 248 255 261 267 270 267 261 252 247
202 208 212 215 221 223 225 227 228 227 227 226 225 228 229 228 229 230 231 234 236 236 234 232 232 236 257 263 264 268 269 258 239 247 250 255 262 265 264 266 265 259
194 201 208 219 227 231 230 228 228 226 227 228 229 230 230 229 230 230 230 233 234 236 235 235 233 246 259 268 270 276 276 263 241 243 245 247 252 255 260 263 261 261
190 194 200 209 218 228 232 231 231 232 231 231 230 230 229 229 229 230 232 233 234 236 237 236 236 253 263 270 275 275 277 254 246 246 247 246 247 248 249 250 252 256
183 186 197 203 212 218 221 225 230 232 232 234 234 234 234 235 234 235 234 236 239 239 238 235 236 249 264 270 272 276 266 253 252 248 246 246 244 246 244 244 247 251
203 183 183 199 207 211 214 217 222 226 232 237 238 239 238 238 238 237 238 240 243 244 243 238 236 247 265 266 271 273 271 261 255 253 249 248 244 244 244 241 243 257
227 207 184 186 200 206 213 216 220 226 231 236 235 235 237 239 241 240 241 243 246 248 253 252 241 247 265 268 272 274 270 257 257 253 250 249 249 246 246 244 242 244
237 233 204 191 196 206 214 217 219 222 227 233 234 234 235 240 242 242 245 243 247 250 250 254 250 247 257 273 275 278 281 264 256 255 252 252 252 251 247 246 246 244